Muscle Shoals, AL

7:07 AM CST on November 22, 2017 (GMT -0600)
Northwest Alabama Regional

Weather History for KMSL - May, 2013

Change the Weather History Date:

Saturday, May 18, 2013

  Actual Average Record
Temperature  
Mean Temperature 73 °F 70 °F  
Max Temperature 80 °F 81 °F 96 °F (1962)
Min Temperature 66 °F 59 °F 39 °F (1973)
Degree Days  
Heating Degree Days 0 1  
Month to date heating degree days 55 25  
Since 1 July heating degree days 2954 3098  
Cooling Degree Days 8 6  
Month to date cooling degree days 58 81  
Year to date cooling degree days 112 146  
Growing Degree Days 23 (Base 50)    
Moisture  
Dew Point 67 °F    
Average Humidity 86    
Maximum Humidity 97    
Minimum Humidity 74    
Precipitation  
Precipitation 0.00 in 0.16 in 3.06 in (1983)
Month to date precipitation 4.06 2.98  
Year to date precipitation 24.83 21.36  
Snow  
Snow 0.00 in - - ()
Month to date snowfall 0.0  
Since 1 July snowfall T  
Snow Depth 0.00 in    
Sea Level Pressure  
Sea Level Pressure 30.00 in    
Wind  
Wind Speed 4 mph (SSW)    
Max Wind Speed 14 mph    
Max Gust Speed 16 mph    
Visibility 4 miles    
Events Fog    
T = Trace of Precipitation, MM = Missing Value Source: NWS Daily Summary

Daily Weather History Graph

Daily Weather History Graph

Search for Another Location

Airport or City:

Trip Planner

Search our weather history database for the weather conditions in past years. The results will help you decide how hot, cold, wet, or windy it might be!

Date:

Astronomy

May. 18, 2013 Rise Set
Actual Time 5:45 AM CDT 7:49 PM CDT
Civil Twilight 5:16 AM CDT 8:17 PM CDT
Nautical Twilight 4:42 AM CDT 8:51 PM CDT
Astronomical Twilight 4:05 AM CDT 9:28 PM CDT
Moon 1:08 PM CDT (5/18) 1:20 AM CDT (5/18)
Length of Visible Light 15h 00m
Length of Day
14h 03m
First Quarter, 55% of the Moon is Illuminated
May 18
First Quarter
May 24
Full
May 31
Last Quarter
Jun 8
New
Jun 16
First Quarter

Hourly Weather History & Observations

Time (CDT) Temp. Heat Index Dew Point Humidity Pressure Visibility Wind Dir Wind Speed Gust Speed Precip Events Conditions
12:47 AM 66.2 °F - 64.4 °F 94% 29.99 in 1.8 mi Calm Calm - N/A   Mostly Cloudy
12:53 AM 66.9 °F - 64.9 °F 93% 29.97 in 3.0 mi Calm Calm - N/A   Mostly Cloudy
1:13 AM 66.2 °F - 64.4 °F 94% 29.98 in 2.0 mi Calm Calm - N/A   Scattered Clouds
1:29 AM 66.2 °F - 64.4 °F 94% 29.98 in 3.0 mi Calm Calm - N/A   Mostly Cloudy
1:48 AM 66.2 °F - 64.4 °F 94% 29.97 in 1.8 mi Calm Calm - N/A   Mostly Cloudy
1:53 AM 66.9 °F - 64.0 °F 90% 29.96 in 0.8 mi Calm Calm - N/A   Mostly Cloudy
2:27 AM 66.2 °F - 64.4 °F 94% 29.98 in 2.0 mi Calm Calm - N/A   Overcast
2:35 AM 66.2 °F - 64.4 °F 94% 29.98 in 4.0 mi Calm Calm - N/A   Overcast
2:44 AM 68.0 °F - 64.4 °F 88% 29.98 in 6.0 mi SSE 3.5 mph - N/A   Overcast
2:53 AM 68.0 °F - 64.9 °F 90% 29.97 in 6.0 mi Calm Calm - N/A   Overcast
3:07 AM 68.0 °F - 64.4 °F 88% 29.99 in 1.5 mi Calm Calm - N/A   Overcast
3:20 AM 68.0 °F - 66.2 °F 94% 29.98 in 0.8 mi Calm Calm - N/A   Mist
3:53 AM 68.0 °F - 64.9 °F 90% 29.97 in 0.5 mi Calm Calm - N/A Fog Fog
4:21 AM 68.0 °F - 66.2 °F 94% 29.99 in 0.2 mi Calm Calm - N/A Fog Fog
4:53 AM 68.0 °F - 66.0 °F 93% 29.98 in 0.2 mi Calm Calm - N/A Fog Fog
5:53 AM 68.0 °F - 66.0 °F 93% 30.00 in 0.2 mi SE 3.5 mph - N/A Fog Fog
6:53 AM 68.0 °F - 66.0 °F 93% 30.01 in 0.2 mi East 3.5 mph - N/A Fog Fog
7:17 AM 69.8 °F - 66.2 °F 88% 30.02 in 1.0 mi Calm Calm - N/A   Mist
7:32 AM 69.8 °F - 66.2 °F 88% 30.03 in 2.5 mi Calm Calm - N/A   Overcast
7:53 AM 70.0 °F - 66.9 °F 90% 30.02 in 1.2 mi SE 3.5 mph - N/A   Overcast
8:07 AM 69.8 °F - 66.2 °F 88% 30.03 in 3.0 mi ESE 4.6 mph - N/A   Overcast
8:53 AM 70.0 °F - 68.0 °F 93% 30.02 in 4.0 mi SE 3.5 mph - N/A   Overcast
9:45 AM 71.6 °F - 68.0 °F 88% 30.04 in 6.0 mi SSW 3.5 mph - N/A   Overcast
9:53 AM 72.0 °F - 68.0 °F 87% 30.03 in 6.0 mi South 5.8 mph - N/A   Overcast
10:21 AM 73.4 °F - 68.0 °F 83% 30.04 in 8.0 mi SSW 3.5 mph - N/A   Overcast
10:53 AM 75.0 °F - 69.1 °F 82% 30.03 in 9.0 mi SSW 4.6 mph - N/A   Overcast
11:53 AM 75.0 °F - 69.1 °F 82% 30.04 in 9.0 mi SW 3.5 mph - N/A   Overcast
12:05 PM 77.0 °F - 69.8 °F 78% 30.05 in 10.0 mi WSW 4.6 mph - N/A   Overcast
12:53 PM 79.0 °F - 69.1 °F 72% 30.02 in 10.0 mi WSW 8.1 mph - N/A   Mostly Cloudy
1:24 PM 78.8 °F - 69.8 °F 74% 30.02 in 10.0 mi SW 5.8 mph - N/A   Mostly Cloudy
1:49 PM 78.8 °F - 69.8 °F 74% 30.02 in 10.0 mi WSW 5.8 mph - N/A   Mostly Cloudy
2:05 PM 80.6 °F 83.9 °F 69.8 °F 70% 30.02 in 9.0 mi West 4.6 mph - N/A   Overcast
2:53 PM 79.0 °F - 70.0 °F 74% 30.00 in 9.0 mi SW 9.2 mph - N/A   Overcast
3:09 PM 78.8 °F - 69.8 °F 74% 30.01 in 8.0 mi SW 8.1 mph - N/A   Scattered Clouds
3:45 PM 78.8 °F - 69.8 °F 74% 30.01 in 7.0 mi SW 9.2 mph - N/A   Mostly Cloudy
3:53 PM 77.0 °F - 69.1 °F 76% 29.99 in 7.0 mi SW 9.2 mph - N/A   Mostly Cloudy
4:04 PM 77.0 °F - 69.8 °F 78% 30.00 in 6.0 mi SSW 6.9 mph - N/A   Haze
4:53 PM 77.0 °F - 69.1 °F 76% 29.99 in 6.0 mi SW 6.9 mph - N/A   Haze
5:53 PM 77.0 °F - 69.1 °F 76% 29.99 in 7.0 mi WSW 4.6 mph - N/A   Overcast
6:01 PM 77.0 °F - 69.8 °F 78% 30.00 in 7.0 mi WSW 3.5 mph - N/A   Overcast
6:53 PM 77.0 °F - 70.0 °F 79% 29.98 in 6.0 mi SW 4.6 mph - N/A   Haze
7:24 PM 75.2 °F - 69.8 °F 83% 29.99 in 5.0 mi South 3.5 mph - N/A   Haze
7:53 PM 73.9 °F - 70.0 °F 87% 29.98 in 4.0 mi Calm Calm - N/A   Clear
8:53 PM 72.0 °F - 69.1 °F 91% 29.99 in 3.0 mi Calm Calm - N/A   Clear
9:11 PM 71.6 °F - 68.0 °F 88% 30.00 in 1.8 mi Calm Calm - N/A   Clear
9:26 PM 71.6 °F - 68.0 °F 88% 30.00 in 2.5 mi Calm Calm - N/A   Clear
9:46 PM 69.8 °F - 68.0 °F 94% 30.00 in 1.2 mi East 3.5 mph - N/A   Clear
9:53 PM 70.0 °F - 66.9 °F 90% 29.99 in 2.5 mi ESE 3.5 mph - N/A   Clear
10:24 PM 71.6 °F - 68.0 °F 88% 30.00 in 3.0 mi Calm Calm - N/A   Scattered Clouds
10:39 PM 69.8 °F - 68.0 °F 94% 30.01 in 2.5 mi Calm Calm - N/A   Mostly Cloudy
10:53 PM 70.0 °F - 66.9 °F 90% 29.99 in 2.5 mi Calm Calm - N/A   Mostly Cloudy
11:15 PM 71.6 °F - 68.0 °F 88% 30.00 in 3.0 mi East 3.5 mph - N/A   Overcast
11:53 PM 72.0 °F - 69.1 °F 91% 29.98 in 3.0 mi East 4.6 mph - N/A   Overcast